Location: Rio Negrinho
(26.2394°S, 49.4999°W)
Time: 13:55:43
(UTC+00:00)

Envisat - Pass Details

Date: 25 July 2021
Orbit: 764 x 766 km, 98.2° (Epoch: 28 September)

Event Time Altitude Azimuth Distance (km) Brightness Sun altitude
Rises 21:40:11 0° 193° (SSW) 3,255 6.2 -11.8°
Reaches altitude 10° 21:43:29 10° 216° (SW) 2,320 5.8 -12.5°
Maximum altitude 21:46:16 15° 249° (WSW) 1,994 5.9 -13.1°
Drops below altitude 10° 21:49:02 10° 282° (WNW) 2,306 7.0 -13.7°
Sets 21:52:19 0° 305° (NW) 3,223 7.7 -14.4°
